Weather Roundup
Issued by NWS Chicago, IL

Home | Current Version | Previous Version | Text Only | Print | Product List | Glossary On
Versions: 1 2 3 4 5 6 7 8 9 10 11 12 13 14 15 16 17 18 19 20 21 22 23 24 25 26 27 28 29 30 31 32 33 34 35 36 37 38 39 40 41 42 43 44 45 46 47 48 49 50
000
NZUS59 KLOT 101608
HRRLOT

CHICAGO AREA WEATHER ROUNDUP
NATIONAL WEATHER SERVICE CHICAGO/ROMEOVILLE IL
1000 AM CST WED FEB 10 2016

NOTE: "FAIR" INDICATES FEW OR NO CLOUDS BELOW 12,000 FEET WITH NO
SIGNIFICANT WEATHER AND/OR OBSTRUCTIONS TO VISIBILITY.

* THESE STATIONS ARE NOT UNDER NWS QUALITY CONTROL. THEY ALSO MAY NOT
  REPORT WEATHER SUCH AS PRECIPITATION OR FOG.

ILZ005-006-012>014-019>023-101700-
NORTHEAST ILLINOIS

CITY           SKY/WX    TMP DP  RH WIND       PRES   REMARKS
OHARE          PTSUNNY   13   2  61 NW10      30.03S WCI   0
MIDWAY         MOSUNNY   15   1  53 NW13      30.04S WCI   1
AURORA         MOSUNNY   13   3  64 NW14      30.06S WCI  -2
LANSING*       PTSUNNY   15   2  58 NW12      30.05R WCI   1
JOLIET*        PTSUNNY   14   3  63 NW6       30.07S WCI   5
WAUKEGAN       CLOUDY    13   1  59 NW12      30.02R WCI  -1
DUPAGE AIRPORT CLOUDY    11   1  64 W13       30.04R WCI  -4
WHEELING       PTSUNNY   13   1  59 NW14      30.04S WCI  -2
KANKAKEE*      MOSUNNY   13   2  60 NW10      30.08R WCI   0
MORRIS*        MOSUNNY   13   2  61 NW9G18    30.04S WCI   1
LEWIS AIRPORT* CLOUDY    12   3  67 NW13      30.06R WCI  -3
$$

WIZ051-052-058>065-066-070>072-101700-
SOUTHEAST WISCONSIN

CITY           SKY/WX    TMP DP  RH WIND       PRES   REMARKS
MILWAUKEE      MOSUNNY   12  -2  53 NW10      30.02R WCI  -1
KENOSHA*       PTSUNNY   13   1  59 NW12      30.01S WCI  -1
RACINE*        CLOUDY    13   0  56 NW13G20   30.03R WCI  -2
BURLINGTON     CLOUDY    10  -1  60 NW13G20   30.02S WCI  -5
WAUKESHA       PTSUNNY    9  -2  61 NW12G23   30.01R WCI  -6
WEST BEND      SUNNY     10  -4  52 NW14G21   30.00S WCI  -5
$$

INZ001>003-010>013-019-020-101700-
NORTHWEST INDIANA

CITY           SKY/WX    TMP DP  RH WIND       PRES   REMARKS
GARY*          PTSUNNY   18   1  49 NW17      30.05R WCI   2
MICHIGAN CITY* NOT AVBL
RENSSELAER*    NOT AVBL
VALPARAISO     CLOUDY    15   6  67 W15       30.01R WCI   0
$$

LMZ740>746-101700-
SOUTHERN LAKE MICHIGAN

STATION/POSITION TIME  SKY/WX   TEMP WIND        PRES    VSBY
                                AIR  DIR/SP/G
                 (UTC)          (F)  (DEG/KT/KT) (MB)    (MI)
HARRISON CRIB    1500            14  320/ 17/ 23   N/A
BURNHAM HARBOR   1600            15  290/ 11/ 14   N/A
CALUMET HARBOR   1500            13  290/ 11/ 15 1016.4R
BURNS HARBOR     1503            16  310/ 21     1016.3R
MICHIGAN CITY    1500            17  280/ 19/ 23   N/A
$$

ABBREVIATIONS USED IN REMARKS
   TC - TEMPERATURE IN CELSIUS
  WCI - WIND CHILL INDEX
   HX - HEAT INDEX
  VSB - VISIBILITY
$$



USA.gov is the U.S. government's official web portal to all federal, state and local government web resources and services.